weather station
Area: 11014 km2
The highest point: Tok (865 m.s.l.)
Total stations: 50
Stations online: 43
Stations offline: 7
Current weather
0°C

Meteorological map - weather stations in Středočeský

. The meteorological maps show weather information from WARIO weather stations

Weather stations Středočeský

 UpdatesNameStatusTemperatureHumidityWind speedWind direction
18.12.2017 11:42Kolín1.2 °C84.5 %1.6 m/s SE
18.12.2017 11:43Bechov-3.0 °C100.0 %1.0 m/s SE
18.12.2017 11:43Bořanovice-2.3 °C85.4 %1.8 m/s E
27.7.2017 23:59Kutná Hora15.5 °C99.0 %0.0 m/s S
18.12.2017 11:42Králův Dvůr-1.9 °C93.3 %0.0 m/s N
18.12.2017 11:42Černé Voděrady-0.5 °C74.0 %1.4 m/s E
18.12.2017 11:42Chotětov-2.7 °C100.0 %0.6 m/s E
18.12.2017 11:41Opolany-0.5 °C81.4 %1.7 m/s E
18.12.2017 11:43Hostín u Vojkovic-0.6 °C97.8 %2.8 m/s E
18.12.2017 11:42Sedlčany0.2 °C72.2 %0.0 m/s S
13.9.2017 23:05Hradištko I15.2 °C84.4 %2.7 m/s S
18.12.2017 11:42Hřebeč1.7 °C71.4 %1.4 m/s W
20.8.2017 12:19Kladno19.0 °C47.8 %0.0 m/s S
18.12.2017 11:42Mělník-1.7 °C95.6 %2.0 m/s NE
18.12.2017 11:42Jiřetice-2.9 °C96.1 %0.0 m/s E
18.12.2017 11:41Kněžmost-0.2 °C100.0 %1.6 m/s SE
18.12.2017 11:42Kojetice-2.3 °C93.2 %1.5 m/s E
18.12.2017 11:43Ledečky-9.9 °C %1.4 m/s E
18.12.2017 11:43Libeř3.5 °C61.1 %0.9 m/s S
18.12.2017 11:42Sazená-2.4 °C88.6 %3.3 m/s E
18.12.2017 11:42Malý Újezd-3.5 °C96.5 %1.5 m/s SE
18.12.2017 11:42Zdice1.5 °C92.1 %0.0 m/s NW
18.12.2017 11:42Červený Újezd-0.8 °C80.1 %0.7 m/s SE
18.12.2017 11:42Mělník-1.5 °C93.4 %1.4 m/s N
18.12.2017 11:42Řevnice7.8 °C58.0 %0.0 m/s E
18.12.2017 11:42Jince-2.0 °C89.7 %1.3 m/s S
18.12.2017 11:42Olešná-0.7 °C88.5 %1.0 m/s E
18.12.2017 11:42Srby0.0 °C84.4 %0.0 m/s SW
18.12.2017 11:42Kralupy nad Vltavou0.5 °C80.8 %1.4 m/s E
18.12.2017 11:42Mrač-0.5 °C81.5 %0.0 m/s SE
18.12.2017 11:42Velvary-0.2 °C80.1 %1.7 m/s NE
18.12.2017 11:42Dolní Jirčany0.5 °C82.2 %1.4 m/s NW
18.12.2017 11:42Mladá Boleslav-2.8 °C100.0 %0.0 m/s SW
10.12.2017 14:33Bratčice-1.2 °C64.0 %3.0 m/s S
4.12.2017 19:33Mratín1.1 °C100.0 %0.0 m/s W
18.12.2017 11:42Mšecké Žehrovice-2.4 °C90.8 %1.5 m/s SE
18.12.2017 11:42Odolena voda-2.1 °C94.9 %3.6 m/s E
18.12.2017 11:42Oseček0.0 °C100.0 %1.2 m/s E
18.12.2017 11:42Pátek1.0 °C82.7 %1.3 m/s SE
18.12.2017 11:42Radlice1.0 °C66.5 %0.3 m/s W
18.12.2017 11:42Semice-1.1 °C97.5 %0.7 m/s W
29.10.2017 08:56Kosmonosy7.8 °C69.6 %6.2 m/s SE
18.12.2017 11:42Srby0.2 °C82.8 %1.2 m/s S
18.12.2017 11:42Vestec1.8 °C71.6 %0.0 m/s NW
18.12.2017 11:42Vidice4.0 °C82.2 %0.0 m/s W
18.12.2017 11:42Nebřich5.3 °C59.3 %1.1 m/s W
15.12.2017 18:04Vrbčany-0.2 °C76.5 %0.0 m/s NE
18.12.2017 11:42Všetaty-3.3 °C98.2 %2.1 m/s E
18.12.2017 11:42Chlístovice6.7 °C51.3 %0.0 m/s SW
18.12.2017 11:43Zibohlavy-2.8 °C98.0 %1.1 m/s E
Email notifications
Enter your email address to subscribe to notifications about news at warioweather.com. Your email address will not be used for any purpose other than sending these emails and will not be provided to any third party. The subscription can be ended at any time.
All data are only indicative. The portal administrator has no responsibility for potentially incorrect data and related consequences. Publishing or further sharing of content from www.warioweather.com is only allowed with written consent from WANET s.r.o.